Location: *
(43.4667°N, 11.6833°E)
Time: 09:36:16
(UTC+00:00)

SL-4 R/B - Pass Details

Date: 19 July 2019
Orbit: 428 x 668 km, 51.6° (Epoch: 25 August)

Event Time Altitude Azimuth Distance (km) Brightness Sun altitude
Rises 22:15:14 0° 266° (W) 3,002 5.9 -24.1°
Reaches altitude 10° 22:17:44 10° 274° (W) 2,088 5.2 -24.2°
Maximum altitude 22:22:16 39° 343° (NNW) 988 3.8 -24.4°
Drops below altitude 10° 22:26:41 10° 53° (NE) 2,029 5.2 -24.6°
Sets 22:29:06 0° 61° (ENE) 2,907 5.9 -24.7°
